OPS 4682 DEB, 29059

Orbit data source: Space-Track

OPS 4682 DEB, 29059 is space debris in LEO originally from a launch on Sat, 03 Apr 1965 UTC launched from the Air Force Western Test Range (AFWTR). Debris objects in space refer to the collection of defunct objects orbiting the Earth. Examples of debris include non-operational satellites, rocket bodies, and fragments generated from explosions, collisions, or faulty payload assembly.

Loading next visibility...
Identifier
29059, 1965-027BJ
Orbit
LEO
Country
Flag of USUS
Related business
Manufacturer
Unknown
Mission
Spacecraft
Bus & Motor
Unknown
Mass
Unknown
Launch date (UTC)
1965-04-03 (61 years ago)
Launch vehicle
Unknown
Launch site
Air Force Western Test Range (AFWTR)
Object type
Payload
Rocket body
Debris
Shape & HBR
Unknown shape, 0.1 m
Radar Cross Section
Small (<0.1 m²)

Expand to show TLE details & history
Last TLE update: 1 day ago

TLE from 1 day ago
0 OPS 4682 DEB
1 29059U 65027BJ  26118.70261639  .00000257  00000-0  89804-3 0  9993
2 29059  90.2421   5.2216 0031824   1.1455  56.0774 12.94331756149212
Epoch: 2026-04-28T16:51Z
TLE epoch observation values (Epoch: 2026-04-28T16:51:46.056Z)
Latitude
57.61517°
Longitude
-104.77423°
Altitude
1,280.565 km
Speed
7.227 km/s
True Right ascension
00h 19m 22s
True Declination
57° 28' 12"
Sunlit
Object was in daylight at epoch
Visualization orbit readout
Latitude
Unknown
Longitude
Unknown
Altitude
Unknown
Speed
Unknown
Apparent Right ascension
Unknown
Apparent Declination
Unknown
Sunlit
N/A
Visualization observer readout
Local Sidereal Time
00:36:31
Azimuth
Unknown
Elevation
Unknown
Doppler factor
Unknown
Orbital elements
Apogee altitude
1,305.888 km
Perigee altitude
1,257.135 km
Semi-major axis
7,659.649 km
Eccentricity
0.00318
Inclination
90.2421°
RAAN
5.2216°
Arg. of periapsis
1.1455°
True anomaly
56.38068°
Mean anomaly
56.0774°
Eccentric anomaly
56.22897°
Mean motion
3.23765 °/min
Orbital period
111.19 mins
BSTAR
0.00089804
Loading maneuver chart data...
Computing Atmospheric mass density...
Loading historical data...
Loading historical data...
Loading historical data...
Loading historical data...
Loading historical data...
Loading historical data...
Loading historical data...

Documentation

Showing up to 5 results
|